TimeEST,TemperatureF,Dew PointF,Humidity,Sea Level PressureIn,VisibilityMPH,Wind Direction,Wind SpeedMPH,Gust SpeedMPH,PrecipitationIn,Events,Conditions,WindDirDegrees,DateUTC
12:15 AM,17.6,-2.2,42,30.46,10.0,ENE,6.9,-,N/A,,Overcast,70,2013-02-08 05:15:00
12:35 AM,17.6,-4.0,38,30.47,10.0,ENE,8.1,-,N/A,,Overcast,70,2013-02-08 05:35:00
12:55 AM,15.8,-4.0,41,30.46,10.0,ENE,10.4,-,N/A,,Overcast,70,2013-02-08 05:55:00
1:15 AM,15.8,-5.8,38,30.46,10.0,ENE,10.4,-,N/A,,Overcast,70,2013-02-08 06:15:00
1:55 AM,15.8,-5.8,38,30.46,10.0,ENE,9.2,-,N/A,,Mostly Cloudy,60,2013-02-08 06:55:00
2:15 AM,15.8,-5.8,38,30.44,10.0,East,10.4,16.1,N/A,,Partly Cloudy,80,2013-02-08 07:15:00
2:35 AM,15.8,-5.8,38,30.43,10.0,ENE,12.7,18.4,N/A,,Partly Cloudy,70,2013-02-08 07:35:00
2:55 AM,15.8,-2.2,45,30.42,10.0,ENE,11.5,-,N/A,,Scattered Clouds,70,2013-02-08 07:55:00
3:15 AM,15.8,-2.2,45,30.41,10.0,ENE,10.4,-,N/A,,Overcast,60,2013-02-08 08:15:00
3:35 AM,15.8,-0.4,49,30.40,10.0,ENE,12.7,-,N/A,,Mostly Cloudy,60,2013-02-08 08:35:00
3:55 AM,15.8,-0.4,49,30.40,10.0,ENE,13.8,-,N/A,,Mostly Cloudy,60,2013-02-08 08:55:00
4:35 AM,14.0,-0.4,53,30.39,10.0,ENE,12.7,16.1,N/A,,Mostly Cloudy,70,2013-02-08 09:35:00
4:55 AM,14.0,3.2,62,30.39,7.0,NE,9.2,16.1,N/A,,Overcast,50,2013-02-08 09:55:00
5:15 AM,12.2,3.2,67,30.39,9.0,ENE,11.5,-,N/A,,Overcast,70,2013-02-08 10:15:00
5:35 AM,12.2,3.2,67,30.39,4.0,NE,11.5,-,N/A,,Overcast,50,2013-02-08 10:35:00
5:55 AM,12.2,5.0,73,30.38,2.0,NE,8.1,-,N/A,,Overcast,50,2013-02-08 10:55:00
6:15 AM,12.2,5.0,73,30.38,3.0,NE,8.1,-,N/A,,Overcast,50,2013-02-08 11:15:00
6:35 AM,12.2,5.0,73,30.38,3.0,NE,6.9,-,N/A,,Overcast,50,2013-02-08 11:35:00
7:15 AM,10.4,5.0,79,30.38,1.8,ENE,10.4,-,N/A,,Overcast,70,2013-02-08 12:15:00
7:35 AM,10.4,5.0,79,30.38,1.2,ENE,9.2,-,N/A,,Overcast,60,2013-02-08 12:35:00
7:55 AM,10.4,5.0,79,30.38,1.0,ENE,9.2,-,N/A,,Overcast,60,2013-02-08 12:55:00
8:15 AM,10.4,5.0,79,30.38,1.0,ENE,8.1,-,N/A,,Overcast,70,2013-02-08 13:15:00
8:35 AM,10.4,5.0,79,30.37,0.8,NE,6.9,-,N/A,,Overcast,40,2013-02-08 13:35:00
8:55 AM,10.4,5.0,79,30.37,1.2,NNE,5.8,-,N/A,,Overcast,30,2013-02-08 13:55:00
9:15 AM,10.4,6.8,85,30.36,0.8,NNE,5.8,-,N/A,,Overcast,30,2013-02-08 14:15:00
9:35 AM,12.2,5.0,73,30.35,1.0,NNE,4.6,-,N/A,,Overcast,30,2013-02-08 14:35:00
9:55 AM,12.2,5.0,73,30.34,1.8,NE,6.9,-,N/A,,Overcast,40,2013-02-08 14:55:00
10:15 AM,12.2,6.8,79,30.34,5.0,ENE,9.2,-,N/A,,Overcast,60,2013-02-08 15:15:00
10:35 AM,12.2,6.8,79,30.33,9.0,NE,8.1,-,N/A,,Overcast,40,2013-02-08 15:35:00
10:55 AM,12.2,5.0,73,30.34,10.0,ENE,5.8,-,N/A,,Overcast,60,2013-02-08 15:55:00
11:15 AM,12.2,6.8,79,30.32,5.0,NE,6.9,-,N/A,,Overcast,40,2013-02-08 16:15:00
11:35 AM,12.2,6.8,79,30.30,2.5,NE,10.4,-,N/A,,Overcast,40,2013-02-08 16:35:00
11:55 AM,12.2,6.8,79,30.28,1.8,NE,9.2,-,N/A,,Overcast,40,2013-02-08 16:55:00
12:15 PM,12.2,8.6,85,30.27,1.5,NE,8.1,-,N/A,,Overcast,50,2013-02-08 17:15:00
12:35 PM,12.2,8.6,85,30.26,1.5,ENE,11.5,-,N/A,,Overcast,60,2013-02-08 17:35:00
12:55 PM,14.0,6.8,73,30.24,2.0,ENE,15.0,19.6,N/A,,Overcast,60,2013-02-08 17:55:00
1:15 PM,14.0,8.6,79,30.23,1.2,NE,13.8,-,N/A,,Overcast,50,2013-02-08 18:15:00
1:35 PM,14.0,8.6,79,30.22,1.2,NE,10.4,-,N/A,,Overcast,50,2013-02-08 18:35:00
1:55 PM,14.0,8.6,79,30.20,1.8,ENE,12.7,19.6,N/A,,Overcast,60,2013-02-08 18:55:00
2:15 PM,15.8,8.6,73,30.18,2.5,NE,13.8,17.3,N/A,,Overcast,50,2013-02-08 19:15:00
2:35 PM,15.8,8.6,73,30.17,3.0,NE,15.0,23.0,N/A,,Overcast,50,2013-02-08 19:35:00
2:55 PM,15.8,8.6,73,30.15,3.0,NE,17.3,27.6,N/A,,Overcast,50,2013-02-08 19:55:00
3:15 PM,15.8,8.6,73,30.14,1.0,NE,16.1,-,N/A,,Overcast,50,2013-02-08 20:15:00
3:35 PM,15.8,8.6,73,30.14,1.0,NE,13.8,20.7,N/A,,Overcast,50,2013-02-08 20:35:00
3:55 PM,15.8,8.6,73,30.13,1.0,NE,15.0,20.7,N/A,,Overcast,50,2013-02-08 20:55:00
4:15 PM,15.8,8.6,73,30.11,1.0,NE,10.4,26.5,N/A,,Overcast,40,2013-02-08 21:15:00
4:35 PM,15.8,8.6,73,30.10,0.8,NE,13.8,24.2,N/A,,Overcast,50,2013-02-08 21:35:00
4:55 PM,15.8,10.4,79,30.09,0.5,NE,16.1,23.0,N/A,,Overcast,50,2013-02-08 21:55:00
5:15 PM,15.8,10.4,79,30.08,0.8,NE,15.0,24.2,N/A,,Overcast,50,2013-02-08 22:15:00
5:35 PM,15.8,10.4,79,30.07,1.5,NE,13.8,17.3,N/A,,Overcast,50,2013-02-08 22:35:00
5:55 PM,15.8,8.6,73,30.06,1.8,NE,17.3,21.9,N/A,,Overcast,50,2013-02-08 22:55:00
6:15 PM,15.8,10.4,79,30.05,1.2,NE,13.8,25.3,N/A,,Overcast,40,2013-02-08 23:15:00
6:35 PM,15.8,10.4,79,30.04,1.2,NE,15.0,23.0,N/A,,Overcast,50,2013-02-08 23:35:00
6:55 PM,15.8,10.4,79,30.02,1.2,NE,17.3,28.8,N/A,,Overcast,50,2013-02-08 23:55:00
7:15 PM,15.8,10.4,79,30.02,1.2,ENE,16.1,28.8,N/A,,Overcast,60,2013-02-09 00:15:00
7:35 PM,15.8,10.4,79,30.01,1.5,NE,16.1,24.2,N/A,,Overcast,50,2013-02-09 00:35:00
7:55 PM,15.8,10.4,79,29.98,1.0,NE,19.6,28.8,N/A,,Overcast,50,2013-02-09 00:55:00
8:15 PM,15.8,10.4,79,29.97,1.0,NE,18.4,27.6,N/A,,Overcast,50,2013-02-09 01:15:00
8:35 PM,15.8,10.4,79,29.96,1.0,NE,15.0,26.5,N/A,,Overcast,50,2013-02-09 01:35:00
8:55 PM,15.8,10.4,79,29.95,1.2,NE,19.6,33.4,N/A,,Overcast,50,2013-02-09 01:55:00
9:15 PM,15.8,10.4,79,29.93,1.0,NE,18.4,28.8,N/A,,Overcast,50,2013-02-09 02:15:00
9:35 PM,15.8,10.4,79,29.91,1.0,NE,16.1,28.8,N/A,,Overcast,50,2013-02-09 02:35:00
9:55 PM,15.8,8.6,73,29.90,1.0,NE,20.7,28.8,N/A,,Overcast,50,2013-02-09 02:55:00
10:15 PM,14.0,10.4,86,29.88,1.0,NE,17.3,32.2,N/A,,Overcast,40,2013-02-09 03:15:00
10:35 PM,14.0,8.6,79,29.86,1.0,NE,19.6,32.2,N/A,,Overcast,50,2013-02-09 03:35:00
10:55 PM,14.0,8.6,79,29.84,0.8,NE,18.4,34.5,N/A,,Overcast,40,2013-02-09 03:55:00
11:15 PM,14.0,8.6,79,29.82,0.8,NE,21.9,29.9,N/A,,Overcast,50,2013-02-09 04:15:00
11:35 PM,14.0,10.4,86,29.81,0.8,NE,21.9,27.6,N/A,,Overcast,50,2013-02-09 04:35:00
11:55 PM,15.8,10.4,79,29.80,0.8,NE,16.1,35.7,N/A,,Overcast,50,2013-02-09 04:55:00